TimeCEST,TemperatureF,Dew PointF,Humidity,Sea Level PressureIn,VisibilityMPH,Wind Direction,Wind SpeedMPH,Gust SpeedMPH,PrecipitationIn,Events,Conditions,WindDirDegrees,DateUTC
12:00 AM,69.8,64.4,83,30.04,6.2,East,1.2,-,N/A,,Partly Cloudy,80,2013-09-14 22:00:00
12:30 AM,69.8,64.4,83,30.04,6.2,East,1.2,-,N/A,,Partly Cloudy,80,2013-09-14 22:30:00
1:00 AM,69.8,64.4,83,30.04,6.2,ENE,2.3,-,N/A,,Partly Cloudy,70,2013-09-14 23:00:00
1:30 AM,69.8,64.4,83,30.04,6.2,Variable,1.2,-,N/A,,Partly Cloudy,0,2013-09-14 23:30:00
2:00 AM,69,65,83,30.03,12,Calm,Calm,,,,Scattered Clouds,,2013-09-15 00:00:00
2:00 AM,69.8,66.2,88,30.04,6.2,ENE,2.3,-,N/A,,Partly Cloudy,60,2013-09-15 00:00:00
2:30 AM,69.8,66.2,88,30.01,6.2,ENE,3.5,-,N/A,,Partly Cloudy,70,2013-09-15 00:30:00
3:00 AM,69.8,66.2,88,30.01,6.2,Calm,Calm,-,N/A,,Partly Cloudy,0,2013-09-15 01:00:00
3:30 AM,69.8,66.2,88,30.01,6.2,Calm,Calm,-,N/A,,Partly Cloudy,0,2013-09-15 01:30:00
4:00 AM,69.8,66.2,88,30.01,6.2,NE,1.2,-,N/A,,Partly Cloudy,40,2013-09-15 02:00:00
4:30 AM,69.8,66.2,88,29.98,6.2,East,2.3,-,N/A,,Partly Cloudy,80,2013-09-15 02:30:00
5:00 AM,68.0,66.2,94,29.98,6.2,Variable,1.2,-,N/A,,Partly Cloudy,0,2013-09-15 03:00:00
5:30 AM,68.0,66.2,94,29.98,6.2,Calm,Calm,-,N/A,,Partly Cloudy,0,2013-09-15 03:30:00
6:00 AM,68.0,66.2,94,29.95,6.2,Calm,Calm,-,N/A,,Partly Cloudy,0,2013-09-15 04:00:00
6:30 AM,68.0,66.2,94,29.95,6.2,Calm,Calm,-,N/A,,Partly Cloudy,0,2013-09-15 04:30:00
7:00 AM,68.0,66.2,94,29.95,6.2,Variable,1.2,-,N/A,,Scattered Clouds,0,2013-09-15 05:00:00
7:30 AM,69.8,66.2,88,29.95,6.2,Variable,1.2,-,N/A,,Mostly Cloudy,0,2013-09-15 05:30:00
8:00 AM,70,66,84,29.97,12,ESE,3.5,,,,Mostly Cloudy,120,2013-09-15 06:00:00
8:00 AM,69.8,66.2,88,29.95,6.2,Variable,2.3,-,N/A,,Mostly Cloudy,0,2013-09-15 06:00:00
8:30 AM,71.6,66.2,83,29.98,6.2,ENE,2.3,-,N/A,,Mostly Cloudy,60,2013-09-15 06:30:00
9:00 AM,71.6,68.0,88,29.95,6.2,Variable,2.3,-,N/A,,Scattered Clouds,0,2013-09-15 07:00:00
9:30 AM,73.4,68.0,83,29.98,6.2,Variable,1.2,-,N/A,,Scattered Clouds,0,2013-09-15 07:30:00
10:00 AM,75.2,68.0,78,29.98,6.2,Variable,1.2,-,N/A,,Scattered Clouds,0,2013-09-15 08:00:00
10:30 AM,77.0,69.8,78,29.98,6.2,Calm,Calm,-,N/A,,Partly Cloudy,0,2013-09-15 08:30:00
11:00 AM,78.8,69.8,74,29.98,6.2,Calm,Calm,-,N/A,,Partly Cloudy,0,2013-09-15 09:00:00
11:30 AM,80.6,68.0,65,29.98,6.2,Variable,2.3,-,N/A,,Scattered Clouds,0,2013-09-15 09:30:00
12:00 PM,80.6,68.0,65,29.98,6.2,WSW,4.6,-,N/A,,Scattered Clouds,250,2013-09-15 10:00:00
12:30 PM,80.6,69.8,70,29.98,6.2,WSW,6.9,-,N/A,,Scattered Clouds,240,2013-09-15 10:30:00
1:00 PM,80.6,69.8,70,29.98,6.2,SW,9.2,-,N/A,,Scattered Clouds,230,2013-09-15 11:00:00
1:30 PM,80.6,69.8,70,29.95,6.2,SW,10.4,-,N/A,,Scattered Clouds,230,2013-09-15 11:30:00
2:00 PM,83,68,51,29.95,19,SW,10.4,,,,Partly Cloudy,230,2013-09-15 12:00:00
2:00 PM,80.6,69.8,70,29.95,6.2,SW,9.2,-,N/A,,Scattered Clouds,230,2013-09-15 12:00:00
2:30 PM,82.4,69.8,66,29.95,6.2,SW,9.2,-,N/A,,Scattered Clouds,230,2013-09-15 12:30:00
3:00 PM,82.4,69.8,66,29.92,6.2,SW,12.7,-,N/A,,Partly Cloudy,220,2013-09-15 13:00:00
3:30 PM,82.4,69.8,66,29.92,6.2,SW,10.4,-,N/A,,Partly Cloudy,230,2013-09-15 13:30:00
4:00 PM,84.2,69.8,62,29.92,6.2,SW,11.5,-,N/A,,Partly Cloudy,230,2013-09-15 14:00:00
4:30 PM,84.2,69.8,62,29.92,6.2,SW,8.1,-,N/A,,Partly Cloudy,230,2013-09-15 14:30:00
5:00 PM,84.2,66.2,55,29.92,6.2,WSW,6.9,-,N/A,,Partly Cloudy,240,2013-09-15 15:00:00
5:30 PM,82.4,68.0,62,29.92,6.2,ENE,15.0,-,N/A,,Partly Cloudy,70,2013-09-15 15:30:00
6:00 PM,80.6,68.0,65,29.92,6.2,ENE,10.4,-,N/A,,Partly Cloudy,70,2013-09-15 16:00:00
6:30 PM,80.6,68.0,65,29.92,6.2,East,10.4,-,N/A,,Partly Cloudy,90,2013-09-15 16:30:00
7:00 PM,77.0,68.0,74,29.92,6.2,East,13.8,-,N/A,,Partly Cloudy,80,2013-09-15 17:00:00
7:30 PM,77.0,66.2,69,29.95,6.2,East,11.5,-,N/A,,Partly Cloudy,80,2013-09-15 17:30:00
8:00 PM,75.2,68.0,78,29.95,6.2,ENE,9.2,-,N/A,,Scattered Clouds,70,2013-09-15 18:00:00
8:30 PM,75.2,66.2,73,29.95,6.2,ENE,5.8,-,N/A,,Partly Cloudy,70,2013-09-15 18:30:00
9:00 PM,73.4,68.0,83,29.98,6.2,ENE,8.1,-,N/A,,Scattered Clouds,70,2013-09-15 19:00:00
9:30 PM,73.4,68.0,83,29.98,6.2,ENE,8.1,-,N/A,,Scattered Clouds,60,2013-09-15 19:30:00
10:00 PM,73.4,66.2,78,29.98,6.2,NE,8.1,-,N/A,,Scattered Clouds,50,2013-09-15 20:00:00
10:30 PM,71.6,66.2,83,29.98,6.2,ENE,6.9,-,N/A,,Scattered Clouds,60,2013-09-15 20:30:00
11:00 PM,71.6,66.2,83,30.01,6.2,ENE,4.6,-,N/A,,Scattered Clouds,60,2013-09-15 21:00:00
11:30 PM,71.6,66.2,83,30.01,6.2,ENE,4.6,-,N/A,,Scattered Clouds,60,2013-09-15 21:30:00